Welcome to the New NWS' Forecast!
Most changes are behind the scenes, but click here for differences you might notice.

Regional Weather Roundup (RWR)

Issued by National Weather Service (NWS)

                            
000
ASUS42 KTBW 221917
RWRFL 
FLORIDA REGIONAL WEATHER ROUNDUP
NATIONAL WEATHER SERVICE TAMPA BAY RUSKIN FL
300 PM EDT SAT SEP 22 2018

NOTE: "FAIR" INDICATES FEW OR NO CLOUDS BELOW 12,000 FEET WITH NO
SIGNIFICANT WEATHER AND/OR OBSTRUCTIONS TO VISIBILITY.

FLZ001>010-012>015-112-114-115-222000-
PANHANDLE FLORIDA
  
CITY           SKY/WX    TMP DP  RH WIND       PRES   REMARKS
PENSACOLA      FAIR      88  73  61 SE9       30.00F HX  95           
PENSACOLA NAS  MOSUNNY   88  74  63 SE13      30.00F HX  96           
MILTON NAS     LGT RAIN  82  77  84 E5        30.01                   
CRESTVIEW      PTSUNNY   88  69  53 SE6       30.02F                  
DUKE FIELD     MOSUNNY   90  69  49 SE8       30.00F                  
VALPARAISO     MOSUNNY   88  73  60 S8        30.00F HX  95           
PANAMA CITY    FAIR      90  70  51 SE6       29.99F HX  95           
APALACHICOLA   FAIR      88  77  69 E8G17     30.01F HX 100           

STATION/POSITION SKY/WX   TEMP    WIND        PRES    WAVE   SWELL
                          AIR SEA DIR/SP/G            HT/PER HT/PER
                          (F)     (DEG/KT/KT) (MB)    (FT/S) (FT/S)
30.1N   87.6W              84     110/  6/ 10 1016.0F   2/ 5   2/ 5
29.2N   88.2W                 87  150/  8/ 12 1015.8F   2/ 5   2/ 5
28.8N   86.0W              83 86  100/ 10/ 12   N/A     2/ 5   2/ 5
PANAMA CITY BEAC           84 88  200/  5/  6 1016.6F
TOWER C                    83     130/  9/ 10 1016.5F

$$
FLZ011-016>038-118-127-128-134-139-239-222000-
NORTH FLORIDA
  
CITY           SKY/WX    TMP DP  RH WIND       PRES   REMARKS
MARIANNA       FAIR      91  68  46 SE8       30.00F HX  95           
TALLAHASSEE    PTSUNNY   91  68  46 VRB3      30.00F HX  95           
PERRY          PTSUNNY   90  69  50 NE7       30.01F HX  95           
LIVE OAK       MOSUNNY   90  66  45 N6        30.01F                  
CROSS CITY     FAIR      91  70  49 N8        30.00F HX  96           
LAKE CITY      FAIR      90  70  51 NE10      30.01F HX  95           
GAINESVILLE    FAIR      90  68  48 E10G17    30.03F                  
PALATKA        FAIR      88  73  62 E10       30.01F HX  96           
MAYPORT NAS    FAIR      88  72  58 E10       30.03F                  
JACKSONVILLE   PTSUNNY   85  70  60 E13       30.02F                  
JAX NAS        PTSUNNY   89  68  49 E12       30.03F                  
JAX CECIL      MOSUNNY   86  72  62 E7        30.02F                  
ST AUGUSTINE   FAIR      86  73  65 E13       30.03F                  
PALM COAST     PTSUNNY   86  73  66 E10       30.02F                  

STATION/POSITION SKY/WX   TEMP    WIND        PRES    WAVE   SWELL
                          AIR SEA DIR/SP/G            HT/PER HT/PER
                          (F)     (DEG/KT/KT) (MB)    (FT/S) (FT/S)
SHELL POINT      NOT AVBL
KEATON BEACH               88     150/  2/  3 1016.0F
CEDAR KEY                  85     130/  5/  6 1016.6F
FERNANDINA                 88 85   50/  5/ 11 1018.1F
30.7N   81.3W                 85                N/A     3/ 9
MAYPORT                    84 85   80/  9/ 14 1017.5F
31.4N   80.9W              82 85   80/ 10/ 12 1017.8F   3/11   2/11
ST AUGUSTINE               83 83   70/ 10/ 11 1017.3F

$$
FLZ040-043>046-052-053-057-058-063-144-222000-
INTERIOR CENTRAL FLORIDA
  
CITY           SKY/WX    TMP DP  RH WIND       PRES   REMARKS
OCALA          PTSUNNY   86  72  62 NE6       30.01F                  
LEESBURG       PTSUNNY   87  72  60 NE12      30.01F                  
SANFORD        FAIR      87  74  64 NE14      30.00F HX  95           
ORLANDO EXEC   FAIR      88  73  61 NE12      30.00F HX  95           
ORLANDO INTL   PTSUNNY   86  71  60 E12       30.00F                  
KISSIMMEE      PTSUNNY   88  72  58 E9        30.00F                  
WINTER HAVEN   FAIR      90  70  51 E13       30.00F HX  95           
LAKELAND       MOSUNNY   90  70  51 E13G21    29.99F HX  95           
SEBRING        FAIR      90  72  54 E14G21    29.98F HX  96           
OKEECHOBEE     CLOUDY    86  73  66 NE7       29.97F                  

$$
FLZ041-047-054-059-064-141-147-222000-
EAST CENTRAL FLORIDA
  
CITY           SKY/WX    TMP DP  RH WIND       PRES   REMARKS
ORMOND BEACH   MOSUNNY   84  73  70 E12       30.02F                  
DAYTONA BEACH  PTSUNNY   85  74  69 E13       30.02F                  
DELAND         PTSUNNY   86  72  62 E13       30.01F                  
NEW SMYRNA BEA MOSUNNY   86  73  66 E7        30.05S                  
TITUSVILLE     PTSUNNY   90  72  55 E8        30.01F HX  96           
MELBOURNE      PTSUNNY   86  73  65 E12       29.99F                  
VERO BEACH     PTSUNNY   86  76  71 E15       29.99F HX  96           
FT PIERCE      CLOUDY    82  78  88 E14       29.99F FOG              
STUART         PTSUNNY   86  75  70 NE12G17   29.99F HX  95           

STATION/POSITION SKY/WX   TEMP    WIND        PRES    WAVE   SWELL
                          AIR SEA DIR/SP/G            HT/PER HT/PER
                          (F)     (DEG/KT/KT) (MB)    (FT/S) (FT/S)
28.5N   80.2W              83      70/ 12/ 14 1016.4F   3/10   2/10
28.9N   78.5W              83 85   80/ 12/ 16 1016.7F
TRIDENT PIER               85 86   60/  8/ 12 1017.9F
28.4N   80.5W                 85                N/A     2/ 4
27.5N   80.2W                 84                N/A     4/10   2/11

$$
FLZ050-056-061-142-242-148-248-149-249-151-251-155-255-
160-260-222000-
WEST CENTRAL FLORIDA
  
CITY           SKY/WX    TMP DP  RH WIND       PRES   REMARKS
CRYSTAL RIVER  FAIR      90  70  51 E13       29.99F HX  95           
BROOKSVILLE    PTSUNNY   88  71  57 NE9       29.99F                  
CLEARWATER AIR FAIR      88  70  55 SE8       29.98F                  
ST PETE CLEARW FAIR      89  72  56 E9        29.98F HX  96           
TAMPA INTL     PTSUNNY   92  68  45 E6        29.99F HX  96           
TAMPA EXEC     FAIR      90  72  55 SE5       29.99S HX  96           
PLANT CITY     FAIR      91  70  49 E12G17    30.00F HX  97           
PETER O KNIGHT FAIR      88  72  58 E6        29.99F                  
ST PETERSBURG  FAIR      89  72  56 E7        29.97F HX  96           
SARASOTA       PTSUNNY   88  72  58 E10       29.96F                  
VENICE         FAIR      91  73  55 E10       29.98F HX 100           

STATION/POSITION SKY/WX   TEMP    WIND        PRES    WAVE   SWELL
                          AIR SEA DIR/SP/G            HT/PER HT/PER
                          (F)     (DEG/KT/KT) (MB)    (FT/S) (FT/S)
CLEARWATER BEACH           88 88   70/  6/ 12 1015.5F
MIDDLE TAMPA BAY           86      60/  4/  8 1015.7F
VENICE                     88 85   90/  5/ 11   N/A

$$
FLZ066-069-070-075>078-162-262-165-265-222000-
SOUTHWEST FLORIDA AND KEYS
  
CITY           SKY/WX    TMP DP  RH WIND       PRES   REMARKS
PUNTA GORDA    FAIR      91  72  53 E10       29.98F HX  98           
FT MYERS       FAIR      91  72  53 E5        29.95F HX  98           
SOUTHWEST INTL PTSUNNY   90  72  55 VRB3      29.96F HX  97           
NAPLES         PTSUNNY   90  72  55 N6        29.96F HX  97           
MARCO ISLAND   TSTM      88  77  69 MISG      29.98F HX 100           
IMMOKALEE        N/A     91  75  59 E9        29.97F HX 102           
MARATHON       FAIR      88  75  65 SE6       29.96F HX  97           
KEY WEST NAS   CLOUDY    87  75  67 SE8       29.96F HX  96           
KEY WEST INTL  TSTM      84  76  76 S8        29.96F                  

STATION/POSITION SKY/WX   TEMP    WIND        PRES    WAVE   SWELL
                          AIR SEA DIR/SP/G            HT/PER HT/PER
                          (F)     (DEG/KT/KT) (MB)    (FT/S) (FT/S)
NAPLES                     87 87  280/  5/  5 1014.6F
26.0N   85.6W              83 85   90/ 10/ 12 1015.0F   2/ 5   2/ 5
DRY TORTUGAS               85     110/  6/  7 1014.7F
SAND KEY                   83                 1014.5F
SOMBRERO KEY               84      90/  8/ 11 1014.0F
LONG KEY                   85 88  120/  9/ 10 1015.0F
MOLASSES REEF              84 87   40/  2/  5 1015.5F

$$
FLZ067-068-071>074-168-172>174-222000-
SOUTHEAST FLORIDA 
  
CITY           SKY/WX    TMP DP  RH WIND       PRES   REMARKS
W PALM BEACH   PTSUNNY   88  75  65 E9        29.97F HX  97           
BOCA RATON     MOSUNNY   88  70  55 E9        29.97F                  
FT LAUDER-EXEC FAIR      90  72  55 E13       29.96F HX  97           
FT LAUDERDALE  PTSUNNY   86  77  74 E8G18     29.96F HX  97           
POMPANO BEACH  FAIR      89  72  56 E10       29.97F HX  96           
PEMBROKE PINES FAIR      90  74  59 E8        29.98F HX  99           
MIAMI          PTSUNNY   87  73  62 SE7       29.97F                  
WEST KENDALL   FAIR      87  75  67 E9        29.96F HX  96           
HOMESTEAD      NOT AVBL                                               

STATION/POSITION SKY/WX   TEMP    WIND        PRES    WAVE   SWELL
                          AIR SEA DIR/SP/G            HT/PER HT/PER
                          (F)     (DEG/KT/KT) (MB)    (FT/S) (FT/S)
PORT EVERGLADES            85      60/  9/ 12 1015.2F
VIRGINIA KEY               85 89   80/  8/ 10 1014.6F
LAKE WORTH                 84 87              1016.2F
FOWEY ROCKS                84 86   60/  7/  7 1015.3F
SETTLEMENT POINT           84      70/  7/  9 1015.4F

$$